Weather History for PHJR - April, 2013

Change the Weather History Date:

Tuesday, April 23, 2013

  Actual Average (PHNL) Record (PHNL)
Temperature  
Mean Temperature 74 °F 76 °F  
Max Temperature 79 °F 83 °F 90 °F (1996)
Min Temperature 69 °F 70 °F 61 °F (1958)
Degree Days  
Heating Degree Days 0 0  
Month to date heating degree days 0  
Since 1 July heating degree days 0  
Cooling Degree Days 9 11  
Month to date cooling degree days 253  
Year to date cooling degree days 1028  
Growing Degree Days 24 (Base 50)    
Moisture  
Dew Point 69 °F    
Average Humidity 86    
Maximum Humidity 100    
Minimum Humidity 71    
Precipitation  
Precipitation 0.01 in 0.02 in 0.88 in (1950)
Month to date precipitation 0.53  
Year to date precipitation 6.85  
Snow  
Snow 0.00 in - - ()
Month to date snowfall  
Since 1 July snowfall  
Snow Depth -    
Sea Level Pressure  
Sea Level Pressure 30.05 in    
Wind  
Wind Speed 9 mph (South)    
Max Wind Speed 16 mph    
Max Gust Speed 16 mph    
Visibility 10 miles    
Events Rain    
T = Trace of Precipitation, MM = Missing Value Source: NWS Daily Summary

Daily Weather History Graph

Daily Weather History Graph

Search for Another Location

Airport or City:

Trip Planner

Search our weather history database for the weather conditions in past years. The results will help you decide how hot, cold, wet, or windy it might be!

Date:

Astronomy

Apr. 23, 2013 Rise Set
Actual Time 6:06 AM HST 6:54 PM HST
Civil Twilight 5:43 AM HST 7:17 PM HST
Nautical Twilight 5:16 AM HST 7:44 PM HST
Astronomical Twilight 4:49 AM HST 8:12 PM HST
Moon 5:12 PM HST (4/23) 4:26 AM HST (4/23)
Length of Visible Light 13h 34m
Length of Day
12h 48m
Waxing Gibbous, 95% of the Moon is Illuminated
Apr 23
Waxing Gibbous
Apr 25
Full
May 2
Last Quarter
May 9
New
May 17
First Quarter

Hourly Weather History & Observations

Time (HST) Temp. Dew Point Humidity Pressure Visibility Wind Dir Wind Speed Gust Speed Precip Events Conditions
12:53 AM 73.0 °F 69.1 °F 87% 30.04 in 10.0 mi South 10.4 mph - N/A   Partly Cloudy
1:53 AM 73.0 °F 69.1 °F 87% 30.03 in 10.0 mi South 9.2 mph - N/A   Partly Cloudy
2:53 AM 73.0 °F 68.0 °F 84% 30.02 in 10.0 mi South 10.4 mph - N/A   Partly Cloudy
3:35 AM 73.4 °F 69.8 °F 88% 30.00 in 10.0 mi South 8.1 mph - N/A   Mostly Cloudy
3:53 AM 73.0 °F 68.0 °F 84% 30.02 in 10.0 mi South 10.4 mph - N/A   Mostly Cloudy
4:14 AM 73.4 °F 69.8 °F 88% 30.00 in 10.0 mi South 10.4 mph - N/A   Scattered Clouds
4:53 AM 73.0 °F 68.0 °F 84% 30.02 in 10.0 mi South 8.1 mph - N/A   Scattered Clouds
4:56 AM 73.4 °F 69.8 °F 88% 30.00 in 10.0 mi South 9.2 mph - N/A   Mostly Cloudy
5:12 AM 73.4 °F 68.0 °F 83% 30.01 in 10.0 mi South 10.4 mph - N/A   Scattered Clouds
5:53 AM 73.0 °F 69.1 °F 87% 30.03 in 10.0 mi South 8.1 mph - N/A   Scattered Clouds
6:53 AM 73.0 °F 69.1 °F 87% 30.05 in 10.0 mi South 9.2 mph - N/A   Partly Cloudy
7:17 AM 73.4 °F 69.8 °F 88% 30.04 in 10.0 mi South 9.2 mph - N/A   Mostly Cloudy
7:53 AM 73.9 °F 69.1 °F 85% 30.07 in 10.0 mi SSW 9.2 mph - N/A   Scattered Clouds
8:53 AM 75.9 °F 70.0 °F 82% 30.08 in 10.0 mi SW 9.2 mph - N/A   Mostly Cloudy
9:53 AM 79.0 °F 71.1 °F 77% 30.09 in 10.0 mi SSW 10.4 mph - N/A   Partly Cloudy
10:53 AM 79.0 °F 70.0 °F 74% 30.09 in 10.0 mi SW 10.4 mph - N/A   Partly Cloudy
11:53 AM 79.0 °F 71.1 °F 77% 30.08 in 10.0 mi SW 11.5 mph - N/A   Scattered Clouds
12:53 PM 79.0 °F 71.1 °F 77% 30.06 in 10.0 mi SW 10.4 mph - N/A   Partly Cloudy
1:53 PM 77.0 °F 69.1 °F 76% 30.04 in 10.0 mi West 6.9 mph - N/A   Mostly Cloudy
2:53 PM 73.0 °F 71.1 °F 93% 30.02 in 9.0 mi WNW 9.2 mph - 0.00 in Rain Light Rain
3:53 PM 78.1 °F 68.0 °F 71% 30.02 in 10.0 mi West 8.1 mph - 0.00 in   Partly Cloudy
4:53 PM 77.0 °F 68.0 °F 74% 30.01 in 10.0 mi WNW 8.1 mph - N/A   Clear
5:53 PM 75.9 °F 66.9 °F 74% 30.03 in 10.0 mi West 5.8 mph - N/A   Clear
6:53 PM 73.0 °F 66.9 °F 81% 30.04 in 10.0 mi Calm Calm - N/A   Clear
7:53 PM 72.0 °F 68.0 °F 87% 30.06 in 10.0 mi East 3.5 mph - N/A   Overcast
8:41 PM 71.6 °F 68.0 °F 88% 30.06 in 10.0 mi ENE 3.5 mph - N/A   Overcast
8:53 PM 71.1 °F 68.0 °F 90% 30.08 in 10.0 mi ENE 3.5 mph - N/A   Overcast
9:30 PM 71.6 °F 68.0 °F 88% 30.08 in 10.0 mi Calm Calm - N/A   Overcast
9:53 PM 72.0 °F 70.0 °F 93% 30.10 in 10.0 mi SSE 12.7 mph 16.1 mph N/A   Overcast
10:00 PM 71.6 °F 69.8 °F 94% 30.08 in 10.0 mi SSE 12.7 mph - N/A   Overcast
10:15 PM 71.6 °F 69.8 °F 94% 30.08 in 10.0 mi SSE 16.1 mph - 0.00 in Rain Light Rain
10:23 PM 69.8 °F 69.8 °F 100% 30.09 in 6.0 mi SSE 12.7 mph - 0.00 in Rain Light Rain
10:53 PM 70.0 °F 70.0 °F 100% 30.11 in 10.0 mi SSE 9.2 mph - 0.00 in   Overcast
11:04 PM 69.8 °F 69.8 °F 100% 30.09 in 10.0 mi SSE 10.4 mph - N/A   Overcast
11:22 PM 69.8 °F 69.8 °F 100% 30.09 in 10.0 mi SE 5.8 mph - N/A   Overcast
11:53 PM 70.0 °F 70.0 °F 100% 30.11 in 10.0 mi Variable 4.6 mph - 0.01 in   Overcast